| time (UTC) | temp F | wind direction | speed MPH | gust MPH | rain 1hr in | rain 24hr in | rain mn in | humidity % | barometer mb |
| 20260905102540 | 75 | 345 | 0.0 | 2.0 | 0.00 | 0.02 | 0.00 | 86 | 1007.4 |
| 20260905102040 | 75 | 309 | 0.0 | 2.0 | 0.00 | 0.02 | 0.00 | 86 | 1007.4 |
| 20260905101037 | 75 | 318 | 0.0 | 2.0 | 0.00 | 0.02 | 0.00 | 86 | 1007.6 |
| 20260905100536 | 75 | 201 | 0.0 | 1.0 | 0.00 | 0.02 | 0.00 | 86 | 1007.4 |
| 20260905100034 | 75 | 22 | 0.0 | 3.0 | 0.00 | 0.02 | 0.00 | 86 | 1007.5 |
| 20260905095534 | 75 | 347 | 1.0 | 4.0 | 0.00 | 0.02 | 0.00 | 86 | 1007.5 |
| 20260905095032 | 75 | 44 | 0.0 | 4.0 | 0.00 | 0.02 | 0.00 | 86 | 1007.4 |
| 20260905094532 | 75 | 358 | 0.0 | 3.0 | 0.00 | 0.02 | 0.00 | 85 | 1007.3 |
| 20260905094028 | 75 | 36 | 0.0 | 2.0 | 0.00 | 0.02 | 0.00 | 85 | 1007.4 |
| 20260905093528 | 75 | 58 | 0.0 | 3.0 | 0.00 | 0.02 | 0.00 | 85 | 1007.3 |
| 20260905093026 | 75 | 333 | 0.0 | 3.0 | 0.00 | 0.02 | 0.00 | 85 | 1007.4 |
| 20260905092526 | 75 | 340 | 0.0 | 1.0 | 0.00 | 0.02 | 0.00 | 85 | 1007.4 |
| 20260905092026 | 75 | 306 | 0.0 | 1.0 | 0.00 | 0.02 | 0.00 | 85 | 1007.4 |
| 20260905091527 | 75 | 312 | 0.0 | 1.0 | 0.00 | 0.02 | 0.00 | 85 | 1007.4 |
| 20260905091023 | 76 | 311 | 0.0 | 1.0 | 0.00 | 0.02 | 0.00 | 85 | 1007.4 |
| 20260905090521 | 76 | 6 | 0.0 | 2.0 | 0.00 | 0.02 | 0.00 | 85 | 1007.4 |
| 20260905090019 | 76 | 318 | 0.0 | 2.0 | 0.00 | 0.02 | 0.00 | 84 | 1007.4 |
| 20260905084520 | 76 | 75 | 0.0 | 3.0 | 0.00 | 0.02 | 0.00 | 83 | 1007.3 |
| 20260905084017 | 76 | 73 | 0.0 | 5.0 | 0.00 | 0.02 | 0.00 | 83 | 1007.3 |
| 20260905082516 | 76 | 323 | 1.0 | 3.0 | 0.00 | 0.02 | 0.00 | 83 | 1007.4 |
| 20260905082014 | 76 | 283 | 0.0 | 3.0 | 0.00 | 0.02 | 0.00 | 83 | 1007.4 |
| 20260905081514 | 76 | 8 | 0.0 | 3.0 | 0.00 | 0.02 | 0.00 | 83 | 1007.4 |
| 20260905080509 | 76 | 320 | 0.0 | 1.0 | 0.00 | 0.02 | 0.00 | 83 | 1007.6 |
| 20260905080009 | 76 | 264 | 0.0 | 2.0 | 0.00 | 0.02 | 0.00 | 82 | 1007.7 |
| 20260905075510 | 76 | 316 | 0.0 | 2.0 | 0.00 | 0.02 | 0.00 | 82 | 1007.6 |
| 20260905074509 | 76 | 281 | 0.0 | 3.0 | 0.00 | 0.02 | 0.00 | 82 | 1007.7 |
| 20260905074001 | 77 | 328 | 0.0 | 2.0 | 0.00 | 0.02 | 0.00 | 82 | 1007.7 |
| 20260905073001 | 77 | 277 | 0.0 | 4.0 | 0.00 | 0.02 | 0.00 | 83 | 1007.7 |
| 20260905072502 | 77 | 12 | 1.0 | 4.0 | 0.00 | 0.02 | 0.00 | 83 | 1007.7 |
| 20260905072003 | 77 | 326 | 1.0 | 4.0 | 0.00 | 0.02 | 0.00 | 83 | 1007.7 |
| 20260905071502 | 77 | 59 | 0.0 | 5.0 | 0.00 | 0.02 | 0.00 | 83 | 1007.7 |
| 20260905070956 | 77 | 311 | 0.0 | 5.0 | 0.00 | 0.02 | 0.00 | 83 | 1007.8 |
| 20260905070458 | 77 | 318 | 0.0 | 2.0 | 0.00 | 0.02 | 0.00 | 83 | 1007.8 |
| 20260905065956 | 77 | 327 | 1.0 | 2.0 | 0.00 | 0.02 | 0.00 | 83 | 1007.7 |
| 20260905064956 | 77 | 342 | 0.0 | 4.0 | 0.00 | 0.02 | 0.00 | 83 | 1007.9 |
| 20260905064456 | 77 | 323 | 1.0 | 5.0 | 0.00 | 0.02 | 0.00 | 83 | 1007.9 |
| 20260905063452 | 77 | 8 | 1.0 | 5.0 | 0.00 | 0.02 | 0.00 | 83 | 1008.0 |
| 20260905062951 | 77 | 326 | 1.0 | 5.0 | 0.00 | 0.02 | 0.00 | 83 | 1008.1 |
| 20260905062452 | 77 | 5 | 1.0 | 4.0 | 0.00 | 0.02 | 0.00 | 83 | 1008.3 |
| 20260905061451 | 77 | 338 | 0.0 | 4.0 | 0.00 | 0.02 | 0.00 | 83 | 1008.4 |
| 20260905060947 | 77 | 44 | 1.0 | 4.0 | 0.00 | 0.02 | 0.00 | 83 | 1008.4 |
| 20260905060447 | 77 | 332 | 1.0 | 4.0 | 0.00 | 0.02 | 0.00 | 83 | 1008.5 |
| 20260905055944 | 78 | 352 | 1.0 | 4.0 | 0.00 | 0.02 | 0.00 | 83 | 1008.4 |
| 20260905055444 | 78 | 311 | 2.0 | 8.0 | 0.00 | 0.02 | 0.00 | 82 | 1008.5 |
| 20260905054944 | 78 | 308 | 1.0 | 8.0 | 0.00 | 0.02 | 0.00 | 82 | 1008.6 |
| 20260905053436 | 78 | 283 | 0.0 | 1.0 | 0.00 | 0.02 | 0.00 | 83 | 1008.6 |
| 20260905052934 | 78 | 176 | 0.0 | 4.0 | 0.00 | 0.02 | 0.00 | 82 | 1008.7 |
| 20260905052432 | 78 | 207 | 1.0 | 6.0 | 0.00 | 0.02 | 0.00 | 82 | 1008.7 |
| 20260905051932 | 78 | 262 | 1.0 | 6.0 | 0.00 | 0.02 | 0.00 | 82 | 1008.7 |
| 20260905051428 | 78 | 321 | 1.0 | 4.0 | 0.00 | 0.02 | 0.00 | 83 | 1008.8 |
| 20260905050927 | 78 | 311 | 1.0 | 3.0 | 0.00 | 0.02 | 0.00 | 83 | 1008.9 |
| 20260905050429 | 78 | 333 | 0.0 | 4.0 | 0.00 | 0.02 | 0.00 | 83 | 1008.9 |
| 20260905045426 | 78 | 283 | 1.0 | 4.0 | 0.00 | 0.02 | 0.00 | 83 | 1009.1 |
| 20260905044926 | 78 | 309 | 1.0 | 4.0 | 0.00 | 0.02 | 0.00 | 84 | 1009.1 |
| 20260905044422 | 78 | 296 | 1.0 | 5.0 | 0.00 | 0.02 | 0.00 | 83 | 1009.0 |
| 20260905043924 | 78 | 330 | 1.0 | 5.0 | 0.00 | 0.02 | 0.00 | 84 | 1009.0 |
| 20260905042922 | 78 | 246 | 0.0 | 4.0 | 0.00 | 0.02 | 0.00 | 84 | 1009.1 |
| 20260905042420 | 78 | 278 | 0.0 | 5.0 | 0.00 | 0.02 | 0.00 | 85 | 1009.1 |
| 20260905041417 | 78 | 197 | 1.0 | 4.0 | 0.00 | 0.02 | 0.00 | 86 | 1009.1 |
| 20260905040916 | 77 | 269 | 0.0 | 4.0 | 0.00 | 0.02 | 0.00 | 86 | 1009.2 |
| 20260905040416 | 77 | 249 | 0.0 | 2.0 | 0.00 | 0.02 | 0.00 | 87 | 1009.2 |
| 20260905035915 | 77 | 238 | 0.0 | 2.0 | 0.00 | 0.02 | 0.02 | 87 | 1009.2 |
| 20260905035413 | 77 | 210 | 0.0 | 3.0 | 0.00 | 0.02 | 0.02 | 87 | 1009.3 |
| 20260905034912 | 77 | 238 | 1.0 | 3.0 | 0.00 | 0.02 | 0.02 | 87 | 1009.4 |
| 20260905034412 | 77 | 229 | 0.0 | 3.0 | 0.00 | 0.02 | 0.02 | 87 | 1009.5 |
| 20260905033909 | 77 | 238 | 1.0 | 4.0 | 0.00 | 0.02 | 0.02 | 88 | 1009.5 |
| 20260905033408 | 77 | 236 | 1.0 | 4.0 | 0.00 | 0.02 | 0.02 | 88 | 1009.3 |
| 20260905032906 | 77 | 281 | 1.0 | 4.0 | 0.00 | 0.02 | 0.02 | 88 | 1009.4 |
| 20260905032408 | 77 | 215 | 1.0 | 4.0 | 0.00 | 0.02 | 0.02 | 89 | 1009.4 |
| 20260905031907 | 77 | 250 | 1.0 | 3.0 | 0.00 | 0.02 | 0.02 | 89 | 1009.4 |
| 20260905031402 | 77 | 215 | 1.0 | 4.0 | 0.00 | 0.02 | 0.02 | 88 | 1009.5 |
| 20260905030859 | 77 | 195 | 1.0 | 5.0 | 0.00 | 0.02 | 0.02 | 88 | 1009.4 |
| 20260905030356 | 77 | 212 | 2.0 | 5.0 | 0.00 | 0.02 | 0.02 | 88 | 1009.3 |
| 20260905025855 | 77 | 211 | 2.0 | 6.0 | 0.00 | 0.02 | 0.02 | 88 | 1009.4 |
| 20260905025356 | 77 | 210 | 2.0 | 6.0 | 0.00 | 0.02 | 0.02 | 88 | 1009.5 |
| 20260905024849 | 78 | 235 | 3.0 | 7.0 | 0.00 | 0.02 | 0.02 | 88 | 1009.5 |
| 20260905024349 | 78 | 249 | 2.0 | 7.0 | 0.00 | 0.02 | 0.02 | 87 | 1009.5 |
| 20260905023850 | 78 | 226 | 2.0 | 5.0 | 0.00 | 0.02 | 0.02 | 88 | 1009.4 |
| 20260905023350 | 78 | 191 | 2.0 | 5.0 | 0.00 | 0.02 | 0.02 | 88 | 1009.5 |
| 20260905022851 | 78 | 212 | 2.0 | 4.0 | 0.00 | 0.02 | 0.02 | 88 | 1009.4 |
| 20260905022351 | 78 | 203 | 2.0 | 4.0 | 0.00 | 0.02 | 0.02 | 88 | 1009.1 |
| 20260905021852 | 78 | 197 | 1.0 | 4.0 | 0.00 | 0.02 | 0.02 | 87 | 1009.1 |
| 20260905021348 | 79 | 214 | 0.0 | 2.0 | 0.00 | 0.02 | 0.02 | 87 | 1009.1 |
| 20260905020846 | 79 | 203 | 1.0 | 3.0 | 0.00 | 0.02 | 0.02 | 87 | 1009.3 |
| 20260905015846 | 79 | 240 | 1.0 | 5.0 | 0.00 | 0.02 | 0.02 | 85 | 1009.2 |
| 20260905015347 | 79 | 232 | 1.0 | 3.0 | 0.00 | 0.02 | 0.02 | 87 | 1009.1 |
| 20260905014844 | 79 | 231 | 1.0 | 3.0 | 0.00 | 0.02 | 0.02 | 88 | 1009.0 |
| 20260905014342 | 79 | 210 | 1.0 | 3.0 | 0.00 | 0.02 | 0.02 | 87 | 1009.1 |
| 20260905013842 | 79 | 193 | 0.0 | 2.0 | 0.00 | 0.02 | 0.02 | 88 | 1009.1 |
| 20260905013343 | 79 | 212 | 0.0 | 2.0 | 0.00 | 0.02 | 0.02 | 88 | 1008.9 |
| 20260905011835 | 79 | 203 | 1.0 | 4.0 | 0.00 | 0.02 | 0.02 | 87 | 1008.7 |
| 20260905011334 | 79 | 226 | 2.0 | 4.0 | 0.00 | 0.02 | 0.02 | 87 | 1008.6 |
| 20260905010835 | 79 | 208 | 2.0 | 4.0 | 0.00 | 0.02 | 0.02 | 87 | 1008.5 |
| 20260905010332 | 79 | 219 | 1.0 | 3.0 | 0.00 | 0.02 | 0.02 | 87 | 1008.4 |
| 20260905005830 | 80 | 184 | 0.0 | 2.0 | 0.00 | 0.02 | 0.02 | 86 | 1008.4 |
| 20260905005330 | 80 | 210 | 0.0 | 1.0 | 0.00 | 0.02 | 0.02 | 86 | 1008.5 |
| 20260905004829 | 80 | 210 | 0.0 | 2.0 | 0.00 | 0.02 | 0.02 | 86 | 1008.4 |
| 20260905004328 | 80 | 211 | 0.0 | 2.0 | 0.00 | 0.02 | 0.02 | 86 | 1008.5 |
| 20260905002823 | 81 | 325 | 1.0 | 3.0 | 0.00 | 0.02 | 0.02 | 83 | 1008.5 |
| 20260905001825 | 81 | 219 | 1.0 | 3.0 | 0.00 | 0.02 | 0.02 | 83 | 1008.4 |
| 20260905001323 | 81 | 242 | 1.0 | 3.0 | 0.00 | 0.02 | 0.02 | 83 | 1008.4 |
| 20260905000821 | 81 | 274 | 1.0 | 3.0 | 0.00 | 0.02 | 0.02 | 84 | 1008.2 |
| 20260905000322 | 81 | 208 | 1.0 | 3.0 | 0.00 | 0.02 | 0.02 | 83 | 1008.2 |
| 20260904235821 | 81 | 208 | 1.0 | 4.0 | 0.00 | 0.02 | 0.02 | 83 | 1008.2 |
| 20260904234822 | 81 | 224 | 1.0 | 4.0 | 0.00 | 0.02 | 0.02 | 84 | 1008.3 |
| 20260904234320 | 81 | 277 | 1.0 | 4.0 | 0.00 | 0.02 | 0.02 | 84 | 1008.5 |
| 20260904233820 | 80 | 249 | 0.0 | 2.0 | 0.00 | 0.02 | 0.02 | 85 | 1008.4 |
| 20260904233318 | 80 | 267 | 0.0 | 0.0 | 0.00 | 0.02 | 0.02 | 86 | 1008.4 |
| 20260904232821 | 80 | 276 | 0.0 | 1.0 | 0.00 | 0.02 | 0.02 | 86 | 1008.3 |
| 20260904232313 | 80 | 255 | 0.0 | 1.0 | 0.00 | 0.02 | 0.02 | 86 | 1008.3 |
| 20260904231809 | 80 | 229 | 1.0 | 4.0 | 0.00 | 0.02 | 0.02 | 86 | 1008.4 |
| 20260904230809 | 80 | 179 | 1.0 | 4.0 | 0.00 | 0.02 | 0.02 | 85 | 1008.4 |
| 20260904230306 | 80 | 226 | 2.0 | 5.0 | 0.00 | 0.02 | 0.02 | 84 | 1008.5 |
| 20260904225307 | 81 | 194 | 2.0 | 5.0 | 0.00 | 0.02 | 0.02 | 83 | 1008.4 |
| 20260904224305 | 82 | 211 | 2.0 | 6.0 | 0.00 | 0.02 | 0.02 | 80 | 1008.3 |
| 20260904223805 | 82 | 215 | 1.0 | 4.0 | 0.00 | 0.02 | 0.02 | 80 | 1008.3 |
| 20260904223304 | 82 | 205 | 2.0 | 6.0 | 0.00 | 0.02 | 0.02 | 79 | 1008.5 |
| 20260904222803 | 82 | 219 | 2.0 | 6.0 | 0.00 | 0.02 | 0.02 | 78 | 1008.4 |
| 20260904222259 | 83 | 212 | 2.0 | 6.0 | 0.00 | 0.02 | 0.02 | 78 | 1008.5 |
| 20260904221756 | 83 | 217 | 2.0 | 6.0 | 0.00 | 0.02 | 0.02 | 77 | 1008.6 |
| 20260904220753 | 83 | 198 | 1.0 | 4.0 | 0.00 | 0.02 | 0.02 | 78 | 1008.6 |
| 20260904220249 | 84 | 228 | 0.0 | 4.0 | 0.01 | 0.02 | 0.02 | 78 | 1008.6 |
| 20260904215746 | 84 | 221 | 0.0 | 2.0 | 0.01 | 0.02 | 0.02 | 77 | 1008.7 |
| 20260904215240 | 84 | 205 | 0.0 | 2.0 | 0.01 | 0.02 | 0.02 | 78 | 1008.8 |
| 20260904214735 | 84 | 228 | 0.0 | 3.0 | 0.02 | 0.02 | 0.02 | 77 | 1009.0 |
| 20260904214230 | 84 | 236 | 1.0 | 3.0 | 0.02 | 0.02 | 0.02 | 77 | 1008.9 |
| 20260904213731 | 84 | 219 | 0.0 | 2.0 | 0.02 | 0.02 | 0.02 | 77 | 1008.9 |
| 20260904213230 | 83 | 245 | 0.0 | 1.0 | 0.02 | 0.02 | 0.02 | 77 | 1008.9 |
| 20260904212731 | 83 | 0 | 0.0 | 0.0 | 0.02 | 0.02 | 0.02 | 78 | 1008.9 |
| 20260904212227 | 84 | 0 | 0.0 | 1.0 | 0.02 | 0.02 | 0.02 | 75 | 1009.0 |
| 20260904211226 | 84 | 351 | 0.0 | 2.0 | 0.02 | 0.02 | 0.02 | 75 | 1009.1 |
| 20260904210727 | 85 | 30 | 0.0 | 2.0 | 0.02 | 0.02 | 0.02 | 74 | 1009.2 |
| 20260904210222 | 85 | 238 | 0.0 | 3.0 | 0.01 | 0.01 | 0.01 | 71 | 1009.4 |
| 20260904205221 | 87 | 352 | 2.0 | 8.0 | 0.01 | 0.01 | 0.01 | 67 | 1009.1 |
| 20260904204721 | 88 | 20 | 3.0 | 8.0 | 0.00 | 0.00 | 0.00 | 63 | 1009.3 |
| 20260904204221 | 89 | 25 | 2.0 | 7.0 | 0.00 | 0.00 | 0.00 | 61 | 1009.3 |
| 20260904203722 | 89 | 5 | 2.0 | 6.0 | 0.00 | 0.00 | 0.00 | 61 | 1009.1 |
| 20260904203218 | 89 | 58 | 3.0 | 7.0 | 0.00 | 0.00 | 0.00 | 61 | 1009.4 |
| 20260904202719 | 89 | 77 | 2.0 | 7.0 | 0.00 | 0.00 | 0.00 | 60 | 1009.6 |
| 20260904202217 | 89 | 321 | 2.0 | 8.0 | 0.00 | 0.00 | 0.00 | 60 | 1009.4 |
| 20260904201718 | 89 | 30 | 2.0 | 8.0 | 0.00 | 0.00 | 0.00 | 60 | 1009.3 |
| 20260904200214 | 90 | 15 | 2.0 | 7.0 | 0.00 | 0.00 | 0.00 | 58 | 1009.1 |
| 20260904195214 | 91 | 24 | 1.0 | 4.0 | 0.00 | 0.00 | 0.00 | 57 | 1009.0 |
| 20260904194714 | 91 | 281 | 3.0 | 10.0 | 0.00 | 0.00 | 0.00 | 57 | 1008.9 |
| 20260904194213 | 91 | 58 | 4.0 | 10.0 | 0.00 | 0.00 | 0.00 | 56 | 1009.1 |
| 20260904193715 | 91 | 333 | 3.0 | 10.0 | 0.00 | 0.00 | 0.00 | 55 | 1009.2 |
| 20260904193210 | 92 | 16 | 2.0 | 10.0 | 0.00 | 0.00 | 0.00 | 55 | 1009.1 |
| 20260904192711 | 92 | 321 | 3.0 | 10.0 | 0.00 | 0.00 | 0.00 | 55 | 1009.2 |
| 20260904191711 | 92 | 358 | 1.0 | 6.0 | 0.00 | 0.00 | 0.00 | 54 | 1009.0 |
| 20260904191211 | 93 | 38 | 2.0 | 8.0 | 0.00 | 0.00 | 0.00 | 53 | 1009.1 |
| 20260904190205 | 92 | 336 | 2.0 | 8.0 | 0.00 | 0.00 | 0.00 | 52 | 1009.2 |
| 20260904185707 | 91 | 206 | 3.0 | 8.0 | 0.00 | 0.00 | 0.00 | 54 | 1009.4 |
| 20260904184706 | 92 | 297 | 3.0 | 9.0 | 0.00 | 0.00 | 0.00 | 53 | 1009.7 |
| 20260904184207 | 91 | 341 | 3.0 | 9.0 | 0.00 | 0.00 | 0.00 | 54 | 1009.8 |
| 20260904182702 | 92 | 304 | 2.0 | 10.0 | 0.00 | 0.00 | 0.00 | 54 | 1009.9 |
| 20260904182202 | 92 | 274 | 2.0 | 7.0 | 0.00 | 0.00 | 0.00 | 54 | 1009.9 |
| 20260904181702 | 91 | 321 | 3.0 | 9.0 | 0.00 | 0.00 | 0.00 | 55 | 1010.1 |
| 20260904181202 | 91 | 264 | 3.0 | 9.0 | 0.00 | 0.00 | 0.00 | 56 | 1010.0 |
| 20260904180703 | 91 | 299 | 2.0 | 6.0 | 0.00 | 0.00 | 0.00 | 55 | 1010.0 |
| 20260904180158 | 91 | 345 | 2.0 | 7.0 | 0.00 | 0.00 | 0.00 | 55 | 1010.0 |
| 20260904175659 | 91 | 13 | 3.0 | 9.0 | 0.00 | 0.00 | 0.00 | 55 | 1010.0 |
| 20260904174658 | 91 | 224 | 2.0 | 8.0 | 0.00 | 0.00 | 0.00 | 55 | 1010.0 |
| 20260904173659 | 91 | 321 | 2.0 | 8.0 | 0.00 | 0.00 | 0.00 | 56 | 1010.1 |
| 20260904173154 | 91 | 335 | 3.0 | 8.0 | 0.00 | 0.00 | 0.00 | 57 | 1010.1 |
| 20260904172655 | 91 | 316 | 2.0 | 7.0 | 0.00 | 0.00 | 0.00 | 56 | 1010.2 |
| 20260904172153 | 91 | 117 | 1.0 | 7.0 | 0.00 | 0.00 | 0.00 | 57 | 1010.3 |
| 20260904171655 | 90 | 183 | 2.0 | 6.0 | 0.00 | 0.00 | 0.00 | 57 | 1010.3 |
| 20260904171154 | 89 | 318 | 2.0 | 7.0 | 0.00 | 0.00 | 0.00 | 58 | 1010.4 |
| 20260904170655 | 90 | 17 | 1.0 | 7.0 | 0.00 | 0.00 | 0.00 | 57 | 1010.3 |
| 20260904165650 | 89 | 8 | 2.0 | 10.0 | 0.00 | 0.00 | 0.00 | 59 | 1010.4 |
| 20260904164152 | 89 | 224 | 2.0 | 7.0 | 0.00 | 0.00 | 0.00 | 60 | 1010.6 |
| 20260904163652 | 88 | 319 | 2.0 | 7.0 | 0.00 | 0.00 | 0.00 | 61 | 1010.7 |
| 20260904163148 | 88 | 248 | 3.0 | 9.0 | 0.00 | 0.00 | 0.00 | 62 | 1010.8 |
| 20260904162647 | 87 | 330 | 3.0 | 9.0 | 0.00 | 0.00 | 0.00 | 62 | 1010.9 |
| 20260904162145 | 88 | 320 | 2.0 | 9.0 | 0.00 | 0.00 | 0.00 | 60 | 1011.0 |
| 20260904161647 | 88 | 113 | 2.0 | 8.0 | 0.00 | 0.00 | 0.00 | 60 | 1011.0 |
| 20260904161147 | 87 | 346 | 3.0 | 8.0 | 0.00 | 0.00 | 0.00 | 61 | 1011.0 |
| 20260904160647 | 87 | 27 | 2.0 | 8.0 | 0.00 | 0.00 | 0.00 | 62 | 1011.1 |
| 20260904160142 | 87 | 27 | 2.0 | 8.0 | 0.00 | 0.00 | 0.00 | 63 | 1011.0 |
| 20260904155643 | 87 | 319 | 2.0 | 7.0 | 0.00 | 0.00 | 0.00 | 63 | 1011.0 |
| 20260904155142 | 87 | 314 | 1.0 | 6.0 | 0.00 | 0.00 | 0.00 | 64 | 1011.0 |
| 20260904154142 | 85 | 18 | 2.0 | 10.0 | 0.00 | 0.00 | 0.00 | 66 | 1011.0 |
| 20260904153644 | 85 | 1 | 3.0 | 10.0 | 0.00 | 0.00 | 0.00 | 67 | 1011.1 |
| 20260904153138 | 85 | 239 | 3.0 | 7.0 | 0.00 | 0.00 | 0.00 | 67 | 1011.0 |
| 20260904152638 | 85 | 332 | 3.0 | 9.0 | 0.00 | 0.00 | 0.00 | 67 | 1011.1 |
| 20260904152137 | 85 | 12 | 3.0 | 9.0 | 0.00 | 0.00 | 0.00 | 68 | 1011.1 |
| 20260904151638 | 85 | 22 | 2.0 | 8.0 | 0.00 | 0.00 | 0.00 | 68 | 1011.2 |
| 20260904151139 | 85 | 43 | 3.0 | 10.0 | 0.00 | 0.00 | 0.00 | 68 | 1011.3 |
| 20260904150639 | 84 | 311 | 3.0 | 10.0 | 0.00 | 0.00 | 0.00 | 69 | 1011.4 |
| 20260904143637 | 82 | 268 | 3.0 | 10.0 | 0.00 | 0.00 | 0.00 | 73 | 1011.6 |
| 20260904143136 | 82 | 329 | 2.0 | 10.0 | 0.00 | 0.00 | 0.00 | 73 | 1011.4 |
| 20260904142635 | 82 | 325 | 1.0 | 10.0 | 0.00 | 0.00 | 0.00 | 72 | 1011.5 |
| 20260904142133 | 82 | 333 | 1.0 | 7.0 | 0.00 | 0.00 | 0.00 | 73 | 1011.4 |
| 20260904141634 | 81 | 27 | 2.0 | 8.0 | 0.00 | 0.00 | 0.00 | 73 | 1011.5 |
| 20260904141130 | 81 | 295 | 3.0 | 8.0 | 0.00 | 0.00 | 0.00 | 73 | 1011.5 |
| 20260904140630 | 81 | 316 | 3.0 | 8.0 | 0.00 | 0.00 | 0.00 | 73 | 1011.7 |
| 20260904140129 | 81 | 13 | 2.0 | 8.0 | 0.00 | 0.00 | 0.00 | 73 | 1011.5 |
| 20260904135629 | 81 | 301 | 3.0 | 8.0 | 0.00 | 0.00 | 0.00 | 74 | 1011.4 |
| 20260904135129 | 81 | 325 | 3.0 | 8.0 | 0.00 | 0.00 | 0.00 | 74 | 1011.4 |
| 20260904134625 | 81 | 13 | 1.0 | 8.0 | 0.00 | 0.00 | 0.00 | 75 | 1011.5 |
| 20260904134125 | 81 | 274 | 0.0 | 5.0 | 0.00 | 0.00 | 0.00 | 76 | 1011.4 |
| 20260904133623 | 80 | 214 | 1.0 | 5.0 | 0.00 | 0.00 | 0.00 | 78 | 1011.4 |
| 20260904133121 | 80 | 245 | 1.0 | 5.0 | 0.00 | 0.00 | 0.00 | 79 | 1011.4 |
| 20260904132620 | 79 | 249 | 1.0 | 5.0 | 0.00 | 0.00 | 0.00 | 80 | 1011.3 |
| 20260904132119 | 79 | 264 | 1.0 | 5.0 | 0.00 | 0.00 | 0.00 | 80 | 1011.4 |
| 20260904131617 | 78 | 285 | 1.0 | 5.0 | 0.00 | 0.00 | 0.00 | 80 | 1011.3 |
| 20260904130619 | 78 | 240 | 1.0 | 4.0 | 0.00 | 0.00 | 0.00 | 82 | 1011.5 |
| 20260904130115 | 78 | 312 | 2.0 | 5.0 | 0.00 | 0.00 | 0.00 | 82 | 1011.6 |
| 20260904125613 | 77 | 354 | 2.0 | 5.0 | 0.00 | 0.00 | 0.00 | 83 | 1011.5 |
| 20260904124611 | 77 | 304 | 1.0 | 4.0 | 0.00 | 0.00 | 0.00 | 83 | 1011.5 |
| 20260904124110 | 77 | 326 | 1.0 | 4.0 | 0.00 | 0.00 | 0.00 | 84 | 1011.6 |
| 20260904123610 | 77 | 310 | 0.0 | 4.0 | 0.00 | 0.00 | 0.00 | 85 | 1011.6 |
| 20260904123109 | 76 | 340 | 0.0 | 4.0 | 0.00 | 0.00 | 0.00 | 85 | 1011.5 |
| 20260904122609 | 76 | 306 | 1.0 | 4.0 | 0.00 | 0.00 | 0.00 | 86 | 1011.2 |
| 20260904122105 | 76 | 263 | 1.0 | 3.0 | 0.00 | 0.00 | 0.00 | 85 | 1011.4 |
| 20260904121601 | 76 | 330 | 1.0 | 0.0 | 0.00 | 0.00 | 0.00 | 87 | 1011.4 |